STARLINK-3813, 52482

Orbit data source: Space-Track

STARLINK-3813, 52482 is a payload satellite owned by SpaceX/Seattle (US) in LEO that was launched on Fri, 06 May 2022 UTC via an FALCON 9 launch vehicle from the Air Force Eastern Test Range (AFETR). Payload-class satellites include a variety of spacecraft equipped with specific instruments for various scientific and technological missions. These include communications satellites like Starlink; space stations such as the ISS; scientific satellites like the Hubble; Earth observation satellites from companies like Planet Labs, Umbra, and HawkEye 360; GPS; miniature CubeSats for education and research; and military/defense satellites.

Loading next visibility...
Identifier
52482, 2022-049AH
Orbit
LEO
Country
Flag of USUS
Related business
Manufacturer
SpaceX/Seattle
Mission
Operational Commercial Communications
Bus & Motor
STARLINK, Unknown motor
Mass
297 kg wet, ~220 kg dry
Launch date (UTC)
2022-05-06 (4 years ago)
Launch vehicle
FALCON 9
Launch site
Air Force Eastern Test Range (AFETR)
Object type
Payload
Rocket body
Debris
Shape & HBR
Box + 1 Pan, 10.1 m
Radar Cross Section
13.562 m², Large (>1 m²)

Expand to show TLE details & history
Last TLE update: 1 day ago

TLE from 1 day ago
0 STARLINK-3813
1 52482U 22049AH  25348.45544337  .00000246  00000-0  33519-4 0  9992
2 52482  53.2188  71.7519 0001269  93.7935 266.3202 15.08830606199528
Epoch: 2025-12-14T10:55Z
TLE epoch observation values (Epoch: 2025-12-14T10:55:50.307Z)
Latitude
-0.00003°
Longitude
-175.57585°
Altitude
540.726 km
Speed
7.593 km/s
True Right ascension
04h 47m 00s
True Declination
0° 00' 00"
Sunlit
Object was in full shadow at epoch
Visualization orbit readout
Latitude
Unknown
Longitude
Unknown
Altitude
Unknown
Speed
Unknown
Apparent Right ascension
Unknown
Apparent Declination
Unknown
Sunlit
N/A
Visualization observer readout
Local Sidereal Time
18:09:11
Azimuth
Unknown
Elevation
Unknown
Doppler factor
Unknown
Orbital elements
Apogee altitude
540.895 km
Perigee altitude
539.139 km
Semi-major axis
6,918.154 km
Eccentricity
0.00013
Inclination
53.2188°
RAAN
71.7519°
Arg. of periapsis
93.7935°
True anomaly
266.30569°
Mean anomaly
266.3202°
Eccentric anomaly
266.31294°
Mean motion
3.77188 °/min
Orbital period
95.44 mins
BSTAR
0.000033519
Loading maneuver chart data...
Computing Atmospheric mass density...
Loading historical data...
Loading historical data...
Loading historical data...
Loading historical data...
Loading historical data...
Loading historical data...
Loading historical data...

Documentation

Showing up to 5 results
|